GEFSMW_500_meanwind_240.txt.gz
Wind_Speed
9 9 10 10 10 11 10 10 11 11 11 10 10 10 11 10 10 10 10 10 10 9 9 9 9 8 8 7 7 7 8 8 8 7 7 8 8 8 8 8 8 8 8
10 9 10 11 11 12 11 11 11 12 11 10 10 10 11 11 10 11 10 9 9 9 9 9 8 8 7 7 7 7 7 8 8 8 8 9 9 9 9 9 9 9 9
11 10 11 11 11 12 12 12 12 12 12 11 11 11 11 11 11 11 10 9 9 9 9 8 8 7 7 7 7 7 7 8 9 9 9 9 9 9 9 9 9 9 9
12 12 12 12 12 12 12 12 12 12 13 12 12 12 12 11 11 10 10 9 9 9 9 8 7 7 8 7 7 8 8 8 8 8 9 9 9 9 9 9 9 9 9
13 13 13 13 13 13 12 13 12 12 13 13 12 12 12 12 12 11 10 10 10 9 8 8 7 8 8 8 8 8 8 8 8 8 8 8 9 9 9 9 9 10 10
14 14 14 14 13 13 13 13 13 13 13 13 13 12 12 12 11 11 10 10 10 9 8 9 9 8 8 8 8 8 8 8 8 8 8 9 9 9 9 10 10 11 11
15 14 14 14 14 14 14 13 13 13 13 13 12 12 12 12 11 11 11 10 10 10 9 9 9 9 9 9 9 9 9 9 9 9 9 9 10 10 10 11 11 11 11
16 15 15 15 15 14 14 14 14 13 13 13 13 13 13 12 12 12 11 11 11 10 10 10 10 10 10 10 11 11 10 10 10 10 10 10 10 10 11 11 11 11 12
16 16 16 16 16 15 14 14 14 14 14 14 14 14 13 13 13 12 13 12 11 12 11 12 12 11 11 12 12 12 12 12 11 11 10 11 10 11 11 12 12 13 12
17 17 17 16 16 15 15 15 15 15 15 15 15 15 15 14 14 14 13 13 12 13 13 13 13 12 13 13 13 13 13 12 12 12 12 12 12 12 12 13 13 13 13
18 17 17 17 16 15 15 15 15 15 15 15 15 15 16 16 15 14 14 14 14 14 14 14 14 14 13 14 14 14 13 13 13 13 13 13 13 13 13 13 13 13 13
18 18 18 18 17 17 17 16 16 16 15 15 15 16 16 16 16 16 16 16 15 15 15 15 15 15 15 15 15 14 14 15 15 15 15 15 14 14 14 13 13 13 13
18 19 19 19 19 18 18 18 17 17 17 17 16 16 17 17 17 17 17 17 16 16 16 16 16 16 16 16 16 16 16 16 16 16 16 16 16 15 15 14 14 14 14
19 19 19 20 20 20 19 19 18 18 18 18 18 18 18 18 18 17 18 18 18 18 18 17 17 17 17 17 17 17 17 17 17 17 17 17 17 16 16 16 15 16 16
20 21 21 21 21 21 20 20 20 20 19 19 19 19 18 19 19 18 19 19 19 19 19 19 19 19 19 18 18 18 18 18 18 18 18 18 18 18 17 17 17 17 17
22 22 23 23 22 22 21 21 21 21 20 20 20 20 19 19 19 19 19 19 19 20 20 20 20 20 20 19 19 19 18 19 19 19 19 19 18 18 18 18 19 19 18
23 23 23 24 24 23 23 22 22 23 22 22 22 22 21 20 20 20 20 20 20 20 20 20 20 20 20 19 19 19 19 19 19 19 19 19 19 19 19 19 18 19 19
25 25 25 25 24 24 24 24 24 24 24 23 23 23 22 22 21 21 20 20 20 20 20 20 20 20 20 20 20 20 20 20 20 20 20 20 20 20 20 20 20 20 20
27 27 27 27 26 25 25 25 25 25 25 24 24 24 24 23 22 21 21 20 20 20 20 20 20 20 20 21 21 20 20 20 20 20 21 21 21 21 21 21 21 21 21
28 28 28 28 27 27 27 26 25 25 25 25 24 24 24 23 22 21 21 21 20 20 21 21 21 20 20 19 19 20 19 20 20 20 20 21 21 21 21 21 21 22 22
29 29 29 29 29 28 28 27 26 25 25 26 25 24 24 23 22 22 22 21 21 21 21 21 21 21 20 20 20 20 21 21 21 20 20 21 21 22 22 22 22 23 23
29 30 30 30 29 29 28 27 27 26 26 26 25 24 24 23 23 22 22 21 21 21 21 21 21 20 20 20 21 21 21 21 21 21 21 21 22 23 23 23 23 24 24
30 30 30 30 29 29 28 28 27 26 26 26 25 25 24 23 23 23 22 22 21 21 21 21 21 21 21 21 21 22 22 22 22 22 23 22 23 24 25 25 25 25 25
31 30 30 30 30 29 28 28 28 27 26 26 25 25 25 24 23 23 23 23 23 22 22 22 22 22 22 22 22 23 23 23 23 24 24 25 25 25 26 26 26 26 26
30 30 30 29 29 29 28 28 28 27 26 26 26 26 25 25 24 24 24 24 24 24 24 24 24 24 23 24 24 24 24 25 25 25 25 26 26 26 26 26 26 26 26
31 30 30 29 29 29 28 28 28 27 26 26 26 26 26 26 25 25 24 25 25 25 25 25 25 25 25 25 25 25 25 25 26 26 26 26 27 27 27 26 26 26 27

GEFSMW_500_meanwind_246.txt.gz
Wind_Speed
7 7 6 6 7 7 8 8 8 7 7 8 8 8 8 8 7 7 7 7 7 8 8 8 7 7 7 7 7 7 7 8 8 8 8 8 8 8 8 8 9 9 9
7 7 7 7 7 7 8 8 8 8 8 8 9 9 9 8 7 7 7 7 8 7 7 7 7 7 7 8 8 7 7 8 8 8 7 7 7 8 8 9 9 9 9
7 7 7 7 8 8 8 9 9 9 9 9 10 10 9 9 8 8 8 8 8 7 7 8 8 7 7 7 7 7 7 7 7 7 7 8 8 8 8 9 9 9 9
8 8 8 9 9 9 9 9 9 9 10 10 9 9 9 8 9 9 8 8 8 8 8 8 8 8 8 7 7 7 7 8 8 8 8 8 8 9 9 9 9 9 9
9 9 9 9 10 10 10 10 10 10 10 9 10 10 10 10 9 9 9 9 9 9 9 9 8 8 9 9 8 8 8 8 9 9 9 9 9 9 9 10 10 9 9
9 10 10 11 10 10 11 10 10 11 10 10 10 11 11 10 10 10 10 10 10 10 10 10 9 9 9 9 9 9 9 10 10 10 10 10 10 10 10 9 9 10 10
9 10 11 11 12 11 11 10 11 11 11 12 12 11 11 12 11 11 11 11 10 10 11 11 10 10 10 10 10 10 10 11 11 11 10 11 10 10 10 10 10 10 10
10 11 12 12 12 12 11 11 12 12 12 13 13 13 13 13 13 12 12 12 11 12 12 12 12 12 11 11 12 11 11 12 12 12 11 11 11 11 11 11 11 11 11
11 12 12 12 12 12 12 12 13 13 13 14 13 13 13 14 14 13 13 13 13 13 13 13 13 12 13 13 13 13 12 12 13 13 13 13 12 12 12 12 12 12 12
13 13 13 13 13 13 14 14 14 14 15 15 14 14 14 14 14 14 14 14 14 15 15 14 14 13 13 13 13 14 13 13 13 13 13 13 12 12 13 13 12 12 11
14 14 14 14 14 15 15 15 15 15 15 15 15 14 14 15 15 15 15 15 15 15 16 16 15 15 15 14 14 14 14 14 14 14 14 14 13 13 13 13 12 12 12
14 14 14 15 15 16 16 16 16 16 16 16 16 16 15 15 16 16 16 16 16 16 16 16 16 16 16 16 16 15 14 15 15 15 15 15 14 14 14 13 13 13 14
15 15 16 16 16 16 17 17 17 18 18 18 17 16 16 17 17 17 17 17 17 16 17 17 17 17 18 18 17 17 16 15 16 16 15 15 15 15 14 14 14 14 15
16 17 17 17 17 17 18 18 18 18 19 19 18 18 17 18 18 18 18 18 18 18 18 18 18 18 18 18 18 18 17 17 16 16 16 16 16 16 15 15 15 16 16
18 18 18 18 19 19 19 19 19 19 19 19 19 19 19 18 18 18 18 18 18 18 18 18 19 19 19 19 19 19 18 18 17 17 17 17 17 17 17 17 17 17 17
20 20 20 20 20 20 20 20 20 20 20 20 20 20 20 20 20 19 19 19 19 19 18 18 19 19 19 19 19 20 20 20 19 19 18 19 18 18 18 18 19 18 18
22 23 23 22 22 22 22 21 21 21 21 21 21 22 22 22 22 21 21 20 20 20 19 18 18 18 18 18 19 19 19 19 19 19 19 19 19 19 19 20 20 20 20
24 24 24 24 24 23 23 23 22 22 23 23 23 23 23 23 23 22 22 21 21 20 20 20 19 19 19 19 20 20 19 19 19 19 19 19 20 20 20 20 20 20 20
26 25 25 25 25 25 24 25 24 24 24 24 23 24 23 23 23 22 22 21 21 21 20 21 20 20 20 20 19 19 19 19 19 19 19 20 20 20 20 20 20 20 20
27 27 26 26 26 26 25 25 26 25 25 24 24 24 24 23 23 23 22 22 22 21 21 21 21 21 21 21 20 20 20 20 20 19 19 20 21 21 21 21 21 21 22
28 28 28 27 27 27 27 26 26 27 26 25 24 24 24 24 23 23 23 23 22 22 22 22 21 21 21 21 21 21 21 21 21 21 21 21 21 22 22 22 22 22 23
29 29 29 29 29 29 29 28 28 28 28 26 25 25 26 25 24 24 24 24 24 24 23 23 22 22 22 22 21 21 21 21 21 21 21 22 22 22 22 22 22 22 22
30 30 29 29 29 30 30 30 30 29 28 27 26 26 27 26 25 25 25 25 25 24 24 23 23 23 22 22 22 22 22 22 22 22 22 23 23 23 23 23 23 23 23
31 31 30 30 30 30 31 31 30 29 28 28 27 26 27 26 26 25 25 24 25 25 25 24 24 24 23 23 23 23 24 24 24 24 24 24 24 24 24 25 25 25 25
32 31 30 31 31 31 31 30 30 29 29 28 27 27 27 27 27 26 26 25 25 25 25 25 25 25 25 25 25 25 25 25 25 26 26 26 25 25 26 26 27 27 27
32 31 30 30 30 30 30 30 30 29 29 29 28 27 27 27 27 27 27 26 26 26 26 26 27 27 27 27 27 27 27 27 26 26 26 26 27 27 27 27 28 28 29

GEFSMW_500_meanwind_252.txt.gz
Wind_Speed
8 8 8 8 8 8 8 8 8 8 8 8 8 7 8 8 8 8 8 8 8 8 8 8 8 8 8 8 8 8 9 9 9 9 9 9 9 9 9 9 8 9 9
9 8 9 9 8 8 8 8 8 8 9 8 8 8 8 9 8 8 9 9 8 8 8 8 8 8 8 8 8 9 10 10 10 9 9 9 10 9 9 9 9 10 10
9 9 9 9 9 9 8 8 8 8 9 9 9 9 9 9 8 8 9 9 9 9 9 8 8 8 8 9 9 9 10 10 10 10 9 9 10 10 10 10 10 10 11
10 10 10 10 10 10 9 9 9 10 10 10 10 10 10 10 10 10 9 9 9 9 9 9 9 9 9 9 9 10 10 10 10 10 10 10 10 11 11 11 11 12 11
10 9 10 10 10 10 10 10 10 10 11 11 10 11 10 11 11 11 10 9 10 9 9 10 10 10 10 10 11 11 11 11 11 11 11 11 11 11 11 12 12 13 12
11 11 10 11 11 11 11 11 11 11 12 12 11 12 12 11 11 11 11 11 11 11 11 11 11 11 11 11 11 11 11 12 12 12 12 12 12 12 12 13 13 13 13
12 12 12 12 12 12 12 12 12 12 12 12 12 13 13 12 12 12 12 12 12 12 12 11 11 12 12 12 12 12 12 13 13 13 13 13 13 13 13 13 13 13 13
13 13 13 13 13 13 13 13 13 13 14 13 14 14 14 14 13 13 13 12 13 13 13 13 13 13 13 13 13 13 13 13 13 14 14 14 14 14 13 13 13 13 13
14 14 14 14 14 14 14 14 14 14 14 15 15 15 15 15 15 15 14 14 14 14 14 15 14 14 14 15 15 15 14 15 15 14 14 14 14 14 14 14 14 14 13
14 14 15 15 15 15 15 15 15 15 15 15 15 15 16 16 16 16 16 15 15 15 15 15 15 15 16 16 16 16 15 16 16 16 15 15 15 15 15 15 15 14 15
15 15 15 15 15 15 15 16 16 16 16 16 16 16 17 17 16 16 16 15 16 17 16 16 16 17 17 17 17 17 17 16 17 17 16 16 16 15 15 15 15 15 16
16 15 15 16 15 15 16 16 17 17 18 17 17 17 18 18 17 17 17 17 17 17 18 17 17 18 19 19 18 18 18 18 18 18 17 17 16 16 16 15 16 16 16
17 16 16 17 17 17 17 17 18 18 18 18 19 19 19 19 18 18 18 18 18 18 18 18 18 18 18 18 18 18 18 18 18 18 18 17 17 17 17 16 16 16 16
18 18 18 18 18 18 18 19 19 18 19 19 19 20 20 19 19 19 19 20 19 19 18 18 19 19 19 18 18 18 18 18 18 18 17 17 17 17 17 17 17 17 16
19 19 19 19 19 19 20 20 20 20 21 20 20 21 21 20 19 19 19 20 19 19 19 19 19 19 19 19 19 19 19 19 18 18 18 17 17 17 17 17 17 17 17
20 20 21 20 21 21 21 21 21 21 21 21 21 21 20 20 19 19 20 20 20 20 20 20 19 19 19 19 20 20 20 19 19 18 18 18 18 17 17 17 17 18 18
22 22 22 22 22 22 22 22 21 21 21 21 21 21 21 21 20 21 21 21 21 21 21 20 20 20 20 20 21 21 21 19 19 19 19 19 18 19 19 19 19 19 19
24 23 23 23 23 23 23 23 23 23 22 23 23 22 22 22 21 21 22 22 22 22 21 21 22 21 21 21 21 20 20 20 19 19 19 19 19 20 20 20 20 20 20
25 25 25 25 25 25 25 25 25 24 24 24 24 23 23 22 22 22 22 22 22 23 23 23 23 22 22 22 22 21 21 21 21 20 20 19 20 21 21 21 21 21 20
27 27 26 26 26 26 26 26 26 26 25 25 24 24 23 23 23 23 24 24 24 24 24 24 23 23 23 23 22 22 22 22 22 22 22 22 23 23 22 22 22 22 22
29 29 28 28 27 27 27 27 27 27 27 26 26 25 24 24 24 25 25 25 25 26 26 25 24 24 24 24 24 24 24 24 24 24 24 24 24 24 24 24 24 23 23
31 30 30 30 29 29 29 28 28 28 28 28 27 26 26 25 25 26 26 26 26 26 26 26 25 25 25 25 25 25 25 25 25 25 25 25 25 25 25 25 25 25 24
31 32 32 32 31 31 31 30 29 29 29 29 29 28 28 28 27 27 27 27 26 26 26 26 26 26 25 25 25 26 26 26 26 25 26 26 25 25 26 26 26 26 26
32 33 33 33 32 32 33 32 31 31 31 30 30 30 30 29 29 29 28 28 28 28 27 27 27 27 26 26 26 26 26 26 26 26 26 27 27 27 27 27 27 27 27
33 33 33 33 33 33 33 33 33 32 32 31 32 32 32 31 31 30 29 29 29 29 29 29 28 27 27 27 27 27 27 27 27 27 28 28 28 28 28 28 28 29 29
33 32 32 32 32 32 32 33 34 33 33 32 33 33 33 32 32 31 30 30 30 30 30 30 29 29 29 28 28 28 28 29 30 29 28 28 28 28 28 28 29 29 30

GEFSMW_500_meanwind_258.txt.gz
Wind_Speed
10 10 10 11 10 10 10 9 9 8 8 8 8 8 8 9 10 10 9 9 9 9 9 8 8 8 8 8 8 8 8 8 8 8 8 8 9 9 10 10 11 11 11
9 10 10 10 10 10 10 10 9 9 9 9 9 9 9 9 9 9 9 9 10 9 9 9 9 9 9 9 8 8 9 9 9 9 9 9 9 10 10 11 11 12 12
9 9 10 10 10 10 10 10 9 9 10 10 10 10 10 11 11 10 9 10 10 10 10 10 10 10 10 9 9 9 9 9 9 10 10 10 10 10 11 11 11 11 12
9 9 10 10 11 11 10 10 10 10 10 11 11 10 11 11 11 11 10 10 10 11 11 11 11 10 10 10 9 9 9 9 9 10 10 10 10 10 11 11 12 12 12
9 10 10 10 11 11 11 11 11 11 11 11 11 11 12 12 12 12 12 11 11 11 11 10 10 10 10 9 9 9 10 10 10 10 10 10 10 11 11 12 12 12 12
10 10 11 11 11 12 12 11 11 11 11 12 12 12 13 13 13 13 13 12 12 12 11 11 11 11 11 10 10 10 10 10 10 11 11 11 11 12 12 13 13 13 14
11 10 11 12 12 12 12 12 12 12 12 12 12 13 13 13 13 13 12 12 13 12 12 12 12 12 11 11 11 11 11 11 12 12 12 12 12 12 12 12 13 13 14
12 12 12 12 12 13 13 14 14 14 14 13 13 13 13 13 13 13 13 13 13 13 12 13 13 13 12 12 12 12 13 13 13 13 13 13 13 13 13 13 13 14 14
13 13 13 13 13 14 14 14 14 14 14 15 14 14 14 14 15 14 14 14 15 14 14 14 14 14 14 14 14 14 15 15 15 15 14 14 14 14 13 13 14 14 14
14 14 15 14 14 15 15 15 16 15 16 16 16 16 15 16 16 16 15 15 15 15 15 15 15 15 15 15 15 15 15 15 15 15 15 15 15 15 15 15 14 14 14
15 15 15 16 16 16 16 16 16 16 16 16 16 16 16 16 17 17 16 16 16 16 16 16 16 16 15 15 15 16 16 16 15 15 15 16 16 16 16 15 15 15 15
16 16 16 17 17 18 17 17 17 17 17 17 18 18 17 17 17 17 17 17 17 17 17 16 16 16 16 16 16 17 16 16 16 16 16 16 16 16 16 15 15 15 15
17 17 17 18 18 18 18 18 17 17 18 18 18 18 18 18 18 18 17 17 18 18 17 17 17 17 17 17 17 18 17 17 17 17 17 17 17 17 17 16 16 15 15
19 19 18 19 19 20 19 19 18 18 18 19 19 19 19 19 19 19 18 18 18 18 18 18 18 18 18 18 18 19 19 19 19 18 18 18 18 18 18 17 17 16 16
20 20 20 20 20 20 21 20 20 20 20 20 20 20 20 19 19 19 19 19 19 19 19 19 19 19 19 19 19 19 19 19 20 19 19 19 19 19 19 18 17 17 17
22 22 21 21 21 21 21 22 21 21 21 22 22 21 21 21 21 20 20 20 19 19 19 19 19 19 19 19 19 20 20 20 20 20 20 20 20 20 20 19 18 18 18
24 23 23 23 22 22 22 23 22 22 22 23 23 22 23 22 21 21 21 21 20 20 20 20 20 20 20 20 20 20 21 21 21 21 21 21 22 22 22 21 20 20 20
25 25 25 24 24 24 24 24 24 24 24 23 23 23 23 23 22 22 22 22 22 22 21 21 21 21 21 21 21 22 22 22 22 22 22 22 22 22 22 22 22 22 21
26 26 26 26 26 26 26 26 25 25 25 25 25 24 24 23 24 23 23 23 23 23 22 22 22 22 22 22 23 23 23 23 23 23 23 23 23 23 23 23 23 22 22
27 27 27 27 27 27 27 27 27 26 26 26 26 26 25 25 25 25 25 25 25 24 24 24 24 24 24 24 24 24 24 24 24 24 24 24 24 23 24 24 24 24 24
28 28 28 28 28 28 28 28 28 28 28 28 27 27 27 27 27 27 27 27 26 26 26 26 26 26 26 26 26 26 26 25 25 25 25 25 24 24 24 24 24 24 25
29 29 29 29 30 29 29 29 29 29 30 30 29 29 29 29 28 28 28 28 28 28 28 27 27 27 27 28 28 28 27 27 27 26 26 25 25 25 24 25 25 25 26
30 30 30 30 31 31 31 30 31 30 30 31 31 30 30 30 29 29 29 29 29 30 30 29 29 29 29 28 28 28 28 27 27 26 26 26 26 26 26 26 27 27 27
30 30 31 31 32 32 32 31 31 31 31 31 31 31 32 31 31 31 31 31 31 31 31 31 31 30 30 29 29 29 29 29 28 28 28 28 28 27 26 27 27 28 28
31 31 31 32 32 32 33 33 32 32 32 31 31 32 32 32 32 32 32 32 32 32 32 32 32 32 31 31 31 31 31 31 30 30 29 29 29 29 28 28 28 28 28
31 31 31 32 32 32 32 33 33 33 33 33 32 32 33 33 34 34 34 35 34 34 34 34 34 33 33 33 33 33 32 31 31 30 30 30 30 30 29 29 29 29 29

GEFSMW_500_meanwind_264.txt.gz
Wind_Speed
13 13 13 12 13 13 13 13 13 12 12 12 11 10 10 10 10 10 11 11 10 9 10 10 10 10 10 9 10 10 9 9 9 10 10 10 10 10 10 10 11 11 12
12 12 11 12 11 12 12 12 12 12 12 12 11 11 10 10 11 11 10 10 10 10 10 10 10 10 10 11 10 10 10 10 10 10 11 11 11 11 11 11 12 12 12
11 11 11 11 11 11 11 11 11 12 11 11 11 11 11 11 11 11 11 10 10 10 11 11 10 10 10 11 11 11 11 11 11 11 11 11 12 12 12 12 12 12 12
11 11 10 10 11 11 11 11 11 11 11 11 11 11 11 11 11 11 11 11 11 11 11 11 10 10 11 11 11 11 11 11 11 11 11 11 12 12 12 12 12 12 12
12 12 11 11 11 11 11 11 11 11 11 11 11 11 11 11 11 11 12 11 11 11 11 12 11 11 11 12 12 12 12 12 11 12 12 12 12 12 12 12 12 12 12
12 12 12 12 12 11 12 12 12 12 12 12 12 12 12 12 12 12 12 12 12 12 12 12 12 12 13 13 13 12 12 12 12 12 12 12 12 12 13 13 13 13 13
13 13 13 12 12 12 12 13 13 12 12 12 13 13 13 13 13 13 13 13 13 12 13 13 12 13 13 13 13 12 12 13 13 13 13 13 13 14 14 14 14 14 14
14 14 14 13 13 13 13 14 14 13 13 14 14 14 14 14 14 14 14 14 14 13 13 13 13 13 13 13 13 12 12 13 13 13 13 14 14 14 14 14 14 14 14
14 15 15 14 14 14 14 14 14 14 14 15 15 15 15 15 15 15 15 15 15 14 14 13 14 14 13 13 13 13 13 13 13 13 14 14 14 14 14 15 14 15 15
15 15 15 15 15 15 15 14 14 14 15 15 16 16 16 16 16 15 15 15 14 14 14 15 14 14 14 14 14 14 14 14 14 14 14 14 14 15 15 14 15 15 15
16 16 16 17 17 17 17 16 16 16 17 17 17 17 17 17 17 16 16 15 15 15 15 15 14 14 15 15 15 15 14 15 15 15 15 15 15 15 15 15 15 15 15
18 18 18 18 18 18 18 18 18 18 18 18 18 18 18 18 17 17 16 16 16 16 16 16 16 15 16 16 16 16 16 16 16 16 16 16 16 16 16 16 16 16 16
19 19 18 19 19 19 19 19 19 19 19 20 20 19 19 18 18 17 17 17 17 17 17 17 17 17 17 18 18 17 17 17 17 17 17 18 17 17 17 17 17 17 17
20 20 20 20 20 20 19 19 19 20 20 20 20 20 20 19 18 18 18 18 18 18 18 18 18 18 19 19 19 19 18 18 18 19 19 19 19 18 18 18 18 18 18
21 21 21 21 21 21 20 20 20 20 20 20 20 20 20 19 19 19 19 19 19 19 19 19 19 19 19 19 19 20 20 20 20 20 20 20 20 20 20 20 20 20 20
23 23 23 23 23 23 22 22 22 22 22 22 21 21 20 20 20 20 21 21 21 21 21 20 20 20 20 20 21 21 21 21 21 21 22 22 22 21 21 21 21 21 21
25 25 25 25 25 25 24 24 24 24 24 24 23 23 22 23 22 22 23 23 24 23 23 22 22 21 21 21 21 21 22 22 22 22 22 23 23 23 22 22 22 22 22
26 27 27 26 26 26 26 26 26 26 26 25 25 25 25 25 24 24 25 25 25 25 25 24 23 23 22 22 23 23 23 24 24 24 24 24 23 23 23 23 23 23 23
28 28 29 28 27 27 28 28 28 28 27 27 27 27 27 27 27 26 26 26 26 26 26 25 25 24 24 24 25 25 25 25 25 25 25 25 25 24 24 24 24 24 24
29 30 30 30 29 29 29 29 29 29 29 29 29 29 28 28 28 28 28 27 26 26 25 26 26 26 26 26 26 26 26 26 26 26 26 26 27 26 26 26 25 25 26
30 31 31 31 31 30 30 30 30 30 30 31 31 31 30 30 29 29 29 29 28 28 28 27 27 27 27 27 28 28 28 28 28 28 28 28 28 27 27 27 27 27 27
31 31 31 31 32 31 31 31 31 31 32 32 32 32 32 32 31 31 30 30 30 30 30 30 29 30 29 29 29 29 29 29 29 29 29 29 29 29 29 29 28 28 28
32 32 32 32 32 32 32 32 32 32 33 33 32 32 32 32 32 32 32 32 32 32 32 32 31 31 31 30 30 30 30 30 30 30 31 30 30 30 30 30 30 29 29
32 32 32 32 32 33 34 33 33 33 34 34 34 33 33 32 32 33 33 33 33 33 33 34 33 32 32 32 32 32 32 32 32 32 32 31 31 31 30 30 31 31 30
33 33 34 33 33 34 35 34 35 35 35 35 35 35 34 34 34 34 34 33 34 34 34 34 34 34 33 34 34 34 33 33 33 33 32 32 32 32 32 32 31 31 30
33 34 35 35 35 35 35 35 36 36 37 37 37 36 36 36 35 35 35 34 34 35 35 35 35 35 34 34 34 35 35 35 34 34 34 34 33 33 32 32 31 31 30

GEFSMW_500_meanwind_270.txt.gz
Wind_Speed
10 10 9 9 10 10 11 11 10 9 9 9 9 9 9 9 9 9 9 8 8 8 7 7 7 8 7 8 8 9 9 9 9 9 9 9 9 9 9 10 10 10 11
9 9 9 9 9 9 10 10 9 9 9 10 10 9 10 10 10 10 9 9 9 8 8 8 8 8 8 8 9 9 10 10 9 9 9 10 10 10 9 10 10 10 11
8 8 8 8 8 8 8 8 8 8 9 9 9 9 9 9 9 9 9 9 9 9 9 9 9 9 9 10 10 10 10 10 10 10 10 10 10 10 10 10 10 11 11
7 7 7 7 8 8 8 8 8 8 8 8 8 9 9 9 9 10 10 10 9 10 10 10 10 10 10 10 10 11 11 11 11 11 11 11 10 10 10 11 11 11 11
7 7 8 8 8 9 9 9 9 8 8 8 9 9 9 9 9 10 10 10 10 10 10 10 11 11 11 10 11 11 11 11 10 11 10 10 10 10 10 10 11 11 12
8 8 8 8 9 9 9 9 9 9 9 9 9 9 9 9 10 10 10 9 9 9 10 10 11 11 11 11 12 11 10 10 10 10 10 10 11 11 11 10 10 10 11
9 9 9 9 9 9 9 10 10 10 10 10 10 10 10 10 10 10 10 10 10 10 10 10 10 11 11 11 11 10 10 10 10 11 10 10 10 11 11 10 10 10 11
10 10 9 10 10 11 11 11 11 11 11 12 12 11 12 11 11 11 10 11 11 11 11 11 11 11 11 11 11 10 10 10 10 11 11 11 11 10 10 10 10 10 11
11 11 11 11 11 11 12 12 12 12 12 12 12 12 12 12 12 12 12 12 12 12 12 12 11 11 11 12 12 11 12 12 12 12 12 12 11 11 11 11 11 11 11
11 11 12 12 12 12 12 12 12 12 12 12 12 13 13 13 13 13 13 13 13 12 12 12 12 12 12 13 13 13 13 13 13 13 13 13 12 12 12 12 12 12 12
13 13 13 14 14 14 14 14 14 13 13 12 13 13 13 13 14 13 14 14 14 14 13 13 13 14 14 14 14 14 14 14 15 15 15 15 14 14 13 13 13 13 13
14 14 15 15 15 15 15 15 15 15 15 15 14 14 14 14 14 14 15 15 15 16 16 15 15 15 15 15 15 15 16 16 15 15 16 16 16 15 15 15 15 15 14
16 16 16 16 16 16 17 17 17 16 17 17 17 16 16 16 16 16 16 16 17 17 18 17 17 17 16 16 16 16 17 17 17 16 16 16 16 16 15 15 15 15 15
17 17 17 17 18 18 18 18 19 18 18 18 18 18 18 18 18 18 18 18 18 18 19 18 18 18 18 18 18 18 18 18 18 18 17 17 16 16 16 16 17 17 17
20 20 19 20 20 20 21 21 21 21 20 20 20 20 19 20 20 20 20 20 20 20 20 20 20 19 20 20 19 19 19 19 19 19 19 18 18 18 18 18 18 18 18
22 22 22 22 22 22 22 22 22 22 22 22 22 22 22 22 22 22 23 22 22 22 22 22 22 21 21 21 21 21 21 21 20 20 20 20 20 20 20 19 20 20 19
24 24 24 24 24 24 24 23 24 24 23 23 23 24 24 24 24 24 24 24 24 24 24 24 23 23 23 23 23 23 22 23 23 23 23 22 22 22 21 21 21 21 21
26 26 26 26 25 25 25 25 26 25 25 25 25 25 25 25 25 25 25 25 25 26 26 26 25 25 25 25 25 25 25 24 24 24 24 23 24 23 23 23 23 23 23
27 28 28 27 27 27 27 27 27 27 27 27 28 27 27 27 26 26 26 27 27 27 28 28 28 28 28 28 27 27 27 26 26 26 26 26 25 26 26 25 25 25 25
29 29 28 28 28 29 29 29 29 29 28 29 29 29 29 29 29 29 29 29 29 29 29 29 29 29 29 29 29 29 28 28 28 28 28 28 28 27 27 26 26 26 26
29 30 30 30 30 30 30 30 30 30 30 30 30 30 31 31 31 31 31 30 31 30 30 30 30 30 30 30 29 29 29 29 29 29 29 30 29 28 28 27 27 26 26
29 30 30 31 31 31 31 31 31 31 31 31 31 31 32 31 32 32 32 32 32 31 31 31 31 31 31 31 31 31 31 31 31 30 30 30 29 29 28 28 28 28 28
29 29 30 31 30 31 31 31 32 32 33 33 33 33 33 32 32 32 33 33 33 32 32 32 32 32 31 31 31 31 32 31 31 31 31 31 30 30 30 30 30 30 30
30 30 30 31 31 31 31 32 32 32 33 33 33 33 34 33 32 32 33 33 33 34 34 33 33 32 32 32 32 32 32 32 32 32 32 32 33 32 32 33 32 32 32
31 31 31 31 32 32 32 33 32 32 33 32 33 33 33 33 33 34 34 34 34 34 34 34 35 35 34 33 33 33 33 33 34 34 34 34 34 34 34 34 34 34 33
31 32 32 32 32 32 33 33 33 33 33 33 33 32 33 33 34 34 34 35 35 35 36 36 36 36 35 35 35 35 35 35 35 35 34 34 35 35 35 36 36 36 35

GEFSMW_500_meanwind_276.txt.gz
Wind_Speed
11 10 9 9 10 10 10 10 10 10 10 9 9 9 8 8 8 8 8 8 8 8 8 8 7 8 8 9 9 9 9 9 9 10 10 11 10 11 11 11 12 12 12
10 10 9 9 9 10 10 10 10 10 9 9 9 8 8 8 8 9 9 9 9 9 9 9 8 8 9 9 10 9 9 9 10 10 10 10 11 11 11 11 11 11 11
10 11 10 10 10 10 10 10 10 10 9 9 8 9 8 9 9 9 8 9 9 9 10 9 9 9 9 10 10 10 10 10 11 11 11 11 11 11 11 10 10 10 10
10 11 11 11 10 10 10 9 9 9 8 8 8 9 9 9 9 9 9 9 9 9 9 10 10 10 10 10 10 11 11 11 11 12 12 12 12 10 10 9 9 10 10
11 11 11 11 10 10 10 10 10 9 9 9 9 8 9 9 9 9 10 10 10 9 9 10 10 10 10 10 11 11 11 12 12 12 12 12 12 11 10 9 10 10 10
12 12 11 11 11 11 11 11 10 10 10 10 10 10 9 10 10 10 10 10 10 10 11 11 11 11 11 11 11 11 11 12 12 12 12 12 12 11 10 10 10 10 11
12 13 12 12 12 11 11 11 11 10 11 11 11 10 11 11 11 11 10 10 11 11 11 12 12 12 11 11 12 12 12 12 12 12 12 12 12 11 11 11 11 11 11
13 13 13 13 12 11 12 12 12 12 12 11 11 12 12 12 12 12 12 11 12 11 11 11 12 12 12 11 12 12 12 12 12 12 12 12 12 11 11 11 11 11 11
13 12 13 13 12 11 12 12 12 12 13 12 12 13 13 13 13 13 13 13 12 12 11 12 12 12 12 12 13 13 13 13 13 13 13 12 12 11 12 12 11 11 12
14 13 13 13 12 12 12 12 13 13 13 13 13 13 13 13 14 14 14 14 14 13 14 13 13 13 13 13 14 14 13 13 13 13 13 13 13 13 13 12 13 13 13
15 16 15 14 14 13 14 14 14 14 14 14 14 14 14 13 13 14 14 15 15 15 15 15 15 15 15 15 15 15 15 15 15 15 14 14 14 15 14 14 14 14 14
16 17 16 16 16 15 16 16 16 16 16 17 17 16 16 15 15 15 16 16 16 16 16 17 17 17 17 17 17 17 17 17 17 17 16 16 16 16 16 16 16 16 16
17 17 18 17 17 17 17 17 18 18 18 19 18 18 18 17 17 17 17 18 18 19 19 19 19 19 19 19 19 19 19 18 18 18 18 17 17 17 17 17 17 18 18
18 18 18 19 18 19 19 20 20 21 21 21 20 20 20 20 20 20 20 20 20 21 21 21 21 21 21 21 21 21 21 20 20 20 19 19 19 19 19 19 19 19 19
20 19 20 20 21 21 21 22 22 23 22 22 22 22 22 22 22 22 22 23 22 22 22 22 22 22 22 23 23 22 22 23 22 22 21 21 21 20 21 21 20 20 20
22 22 22 23 23 23 24 24 24 24 24 24 24 24 24 24 24 24 25 25 25 24 24 24 24 24 24 24 25 25 24 24 25 25 24 24 23 22 22 22 22 22 22
24 24 25 24 24 25 25 25 26 26 26 26 26 26 26 26 27 27 27 27 27 26 27 26 26 26 26 26 27 27 27 26 26 26 26 27 26 25 24 24 24 24 24
25 25 26 26 26 26 26 26 27 27 27 28 28 27 27 28 29 29 28 29 29 29 29 29 29 28 28 28 28 28 28 29 29 29 28 28 28 27 26 26 26 26 26
26 26 26 27 27 26 26 27 28 28 28 29 29 29 29 29 29 29 29 29 30 30 30 30 31 30 30 30 30 30 30 30 30 30 30 29 29 29 28 27 27 27 27
28 27 27 28 28 28 28 28 29 30 30 30 30 30 30 30 30 30 30 30 30 30 30 31 31 31 31 31 32 32 32 31 31 31 30 30 30 30 29 29 28 28 29
29 29 29 29 29 30 29 29 29 30 30 31 30 31 30 30 30 31 31 31 31 31 30 31 32 32 32 32 32 32 32 32 32 32 32 32 32 31 31 31 30 29 29
29 29 30 30 29 29 29 30 30 30 30 31 31 32 32 31 31 32 32 32 32 32 31 31 31 32 32 32 32 32 32 32 33 32 32 32 32 32 32 32 31 31 31
29 29 30 30 30 29 30 30 31 31 31 31 32 32 32 32 32 32 33 33 34 34 34 33 32 32 32 31 32 32 33 33 33 33 33 33 33 33 33 32 32 32 33
29 29 30 30 30 31 31 31 31 32 32 33 32 32 32 32 32 33 34 34 34 35 34 34 34 33 32 32 32 33 33 33 34 34 34 33 33 34 34 34 34 34 35
31 31 31 30 30 31 32 32 32 33 33 33 33 33 33 33 33 33 33 34 34 35 35 35 35 34 34 33 33 33 34 34 34 35 35 35 35 35 35 35 35 35 35
31 31 31 31 30 30 31 32 33 34 34 34 34 34 34 34 34 34 33 33 34 35 36 36 36 36 36 35 35 35 35 36 37 37 36 36 36 36 36 36 36 36 35

GEFSMW_500_meanwind_282.txt.gz
Wind_Speed
13 13 13 13 13 12 12 11 11 11 11 11 10 10 10 9 9 9 9 8 8 8 8 8 9 8 8 9 8 8 8 8 9 9 10 10 10 11 11 11 11 11 11
12 13 13 13 13 13 12 11 11 11 11 11 11 11 11 10 9 9 9 9 9 8 8 8 9 9 9 9 9 10 9 9 10 10 10 10 10 10 10 11 11 11 11
12 12 12 12 12 12 12 12 12 11 11 11 11 11 10 10 10 10 9 10 9 9 9 9 9 9 10 10 10 10 10 10 10 10 9 9 10 10 10 11 11 10 10
12 12 12 13 12 12 12 13 13 12 12 11 11 10 10 10 10 10 10 10 10 10 9 9 9 9 9 9 9 10 10 10 10 10 10 10 10 10 10 10 10 10 10
12 13 13 13 13 13 13 13 13 13 13 12 12 11 11 11 11 11 11 11 10 10 10 10 9 10 10 10 9 9 10 10 10 10 9 10 10 10 10 10 10 10 10
13 13 14 13 13 14 13 13 13 13 13 13 12 12 12 11 11 11 11 11 11 11 11 10 10 11 11 11 11 10 10 11 11 10 10 10 10 10 10 10 10 10 10
13 13 14 14 13 13 13 13 13 13 13 13 13 12 12 12 12 11 11 11 11 11 11 11 11 11 11 11 10 10 10 10 11 11 11 11 11 11 11 11 10 10 10
13 13 13 14 14 14 13 14 13 13 13 13 14 14 14 13 13 12 12 11 11 11 12 12 12 12 11 11 11 10 11 11 11 12 12 12 13 12 12 12 11 11 11
14 14 14 14 14 14 14 14 14 14 14 14 14 14 14 15 15 14 14 13 12 12 13 13 13 13 12 12 12 12 12 12 12 13 13 13 13 14 14 13 12 12 12
15 15 15 15 15 15 15 15 15 15 15 15 15 15 15 16 15 15 15 14 14 14 14 14 14 14 14 14 14 14 13 14 14 14 14 14 15 15 14 14 13 13 13
15 16 16 16 16 16 16 17 17 17 17 17 17 17 17 16 16 16 16 16 15 15 15 15 15 15 16 16 15 16 15 16 15 16 16 17 16 16 15 14 14 14 14
16 16 17 17 17 17 17 18 18 19 19 19 19 19 18 18 18 18 18 18 18 18 17 17 17 17 17 17 17 18 18 18 18 18 18 17 17 17 17 16 16 16 16
16 17 18 19 18 18 19 19 20 20 20 21 21 21 21 21 20 20 20 20 20 20 19 19 19 19 19 19 19 20 20 20 20 20 19 19 19 18 18 18 18 18 18
18 18 19 20 20 20 20 21 21 22 22 22 22 22 22 22 23 23 22 22 22 21 21 21 21 21 22 21 21 21 21 21 21 21 21 21 21 21 21 21 21 20 20
20 20 20 21 22 22 22 23 22 23 23 23 23 23 23 24 25 25 25 24 24 24 23 23 23 23 23 23 23 23 23 23 22 22 23 23 23 23 23 23 23 22 22
21 21 21 21 23 24 24 25 24 23 23 23 23 23 24 24 25 25 25 25 25 25 25 25 25 25 24 24 25 25 25 24 24 24 24 25 25 25 25 25 24 24 24
21 22 23 23 23 24 24 25 25 24 24 24 25 25 25 25 26 26 27 27 26 26 26 27 27 27 27 27 27 27 27 26 26 26 26 26 26 26 26 26 26 26 26
22 22 22 23 24 24 25 25 26 26 26 26 27 27 26 26 27 27 27 27 28 28 28 28 28 28 28 29 29 28 28 28 27 27 27 27 27 27 27 28 28 28 28
23 23 23 24 24 24 25 25 26 27 27 27 28 28 28 28 28 28 27 28 28 29 29 29 30 30 30 30 30 30 29 28 28 28 28 28 29 29 30 29 29 30 30
24 24 24 25 25 25 25 26 26 27 28 28 28 28 28 29 29 29 29 29 29 30 30 30 31 31 31 31 31 31 30 30 30 30 30 30 31 31 31 31 31 31 31
25 25 25 26 26 26 27 27 27 28 28 28 29 29 29 30 30 30 30 31 31 31 31 31 32 32 32 32 32 32 31 31 30 31 31 32 32 32 32 32 32 32 32
25 25 26 26 27 28 28 28 28 28 29 29 29 29 29 30 30 31 31 31 31 31 32 32 32 33 32 32 32 32 31 31 30 31 32 32 32 32 32 32 31 32 33
25 25 26 26 27 28 29 29 29 29 29 29 29 30 30 30 30 31 31 31 31 31 31 31 32 32 32 32 31 32 32 32 32 31 31 31 32 32 32 32 32 32 32
25 25 26 26 26 27 28 29 30 30 30 29 29 30 30 30 31 31 31 31 31 31 31 31 32 32 32 32 33 33 32 33 32 32 32 31 30 31 31 32 32 32 32
26 26 26 27 27 27 28 28 29 29 30 29 29 30 31 31 31 31 31 31 31 31 31 32 32 32 32 32 33 33 33 34 34 34 34 33 32 32 32 32 33 33 33
26 26 27 27 27 27 27 28 29 29 29 30 30 31 31 31 31 31 30 31 31 32 32 32 32 32 32 32 32 33 34 34 34 35 35 34 34 33 33 33 33 34 35